Stations météo

réclame
Mon MeteoGroup
Floda, Suède (2476): Température de l'air & dewpoint: 16.10.2017 06:00:00 - 22.10.2017 06:00:00 (CEST)Floda, Suède (2476): Vitesse du vent & gusts: 16.10.2017 06:00:00 - 22.10.2017 06:00:00 (CEST)Floda, Suède (2476): Direction du vent: 16.10.2017 06:00:00 - 22.10.2017 06:00:00 (CEST)Floda, Suède (2476): reduced air pressure: 16.10.2017 06:00:00 - 22.10.2017 06:00:00 (CEST)Floda, Suède (2476): visibility: 16.10.2017 06:00:00 - 22.10.2017 06:00:00 (CEST)Floda, Suède (2476): Quantités de précipitations: 16.10.2017 06:00:00 - 22.10.2017 06:00:00 (CEST)
Date & Time tt [°C] td [°C] ff [km/h] ff [knt] fx [km/h] fx [knt] dd ppp [hPa] vv [km] rr [mm]
22.10.2017 06:00:00 4,5 2,2 6 3 14 7 E 1018,2 50 0,0
22.10.2017 05:00:00 5,0 2,5 8 4 14 7 E 1018,6 50 0,0
22.10.2017 04:00:00 4,4 2,1 8 4 12 7 ENE 1019,0 50 0,0
22.10.2017 03:00:00 4,5 2,2 8 4 12 7 ENE 1019,5 50 0,0
22.10.2017 02:00:00 3,7 1,9 7 4 18 10 ENE 1020,1 50 0,0
22.10.2017 01:00:00 4,5 1,7 5 3 18 10 E 1020,5 50 0,0
22.10.2017 00:00:00 4,5 1,9 8 4 16 9 ENE 1020,8 50 0,0
21.10.2017 23:00:00 4,5 1,7 9 5 16 9 ENE 1020,9 50 0,0
21.10.2017 22:00:00 5,1 1,8 5 3 14 8 E 1021,2 50 0,0
21.10.2017 21:00:00 5,0 1,7 7 4 16 9 ENE 1021,1 50 0,0
21.10.2017 20:00:00 5,1 1,4 5 3 17 9 E 1021,3 50 0,0
21.10.2017 19:00:00 6,7 2,0 10 5 22 12 ENE 1021,6 50 0,0
21.10.2017 18:00:00 6,7 2,0 10 5 22 12 ENE 1021,3 50 0,0
21.10.2017 17:00:00 7,9 1,7 11 6 29 15 ENE 1021,3 50 0,0
21.10.2017 16:00:00 8,2 1,4 11 6 33 18 ESE 1021,5 50 0,0
21.10.2017 15:00:00 9,2 3,4 17 9 29 16 ENE 1021,4 43 0,0
21.10.2017 14:00:00 9,1 4,3 15 8 29 15 ENE 1021,7 49 0,0
21.10.2017 13:00:00 9,0 3,6 14 8 29 15 E 1021,8 50 0,0
21.10.2017 12:00:00 8,6 3,6 13 7 27 14 E 1022,0 50 0,0
21.10.2017 11:00:00 7,8 3,8 10 5 24 13 E 1021,9 50 0,0
21.10.2017 10:00:00 6,6 4,6 9 5 25 14 ENE 1021,7 50 0,0
21.10.2017 09:00:00 5,6 4,6 13 7 25 14 NE 1021,6 50 0,0
21.10.2017 08:00:00 5,2 4,3 13 7 22 12 NE 1021,3 50 0,0
21.10.2017 07:00:00 5,1 4,1 14 7 21 12 NE 1021,0 50 0,0
21.10.2017 06:00:00 5,1 3,8 12 6 21 12 NE 1021,0 50 0,0
21.10.2017 05:00:00 5,2 3,5 13 7 23 12 NE 1021,2 50 0,0
21.10.2017 04:00:00 4,9 3,2 12 6 23 12 NE 1021,4 50 0,0
21.10.2017 03:00:00 5,5 3,7 9 5 21 12 NE 1021,6 50 0,0
21.10.2017 02:00:00 5,5 4,0 11 6 20 11 NE 1021,6 50 0,0
21.10.2017 01:00:00 5,8 3,8 10 5 20 11 ENE 1021,5 50 0,0
21.10.2017 00:00:00 6,0 4,0 11 6 22 12 NE 1021,5 50 0,0
20.10.2017 23:00:00 6,6 4,4 10 5 21 11 ENE 1021,4 50 0,0
20.10.2017 22:00:00 7,0 4,5 8 4 24 13 E 1021,4 50 0,0
20.10.2017 21:00:00 7,2 4,7 11 6 24 13 ENE 1021,6 50 0,0
20.10.2017 20:00:00 7,2 4,5 10 5 16 9 ENE 1021,5 50 0,0
20.10.2017 19:00:00 7,4 4,7 7 4 18 10 E 1021,4 50 0,0
20.10.2017 18:00:00 7,5 4,6 8 4 21 11 ENE 1021,1 50 0,0
20.10.2017 17:00:00 8,0 4,6 9 5 23 12 E 1021,1 50 0,0
20.10.2017 16:00:00 8,6 5,5 10 5 23 12 E 1021,0 50 0,0
20.10.2017 15:00:00 8,7 6,0 10 5 18 10 E 1021,1 50 0,0
20.10.2017 14:00:00 8,1 6,0 9 5 16 9 E 1021,2 50 0,0
20.10.2017 13:00:00 7,2 5,5 6 4 14 8 E 1021,4 50 0,0
20.10.2017 12:00:00 6,0 5,3 8 4 14 7 ENE 1021,7 50 0,0
20.10.2017 11:00:00 4,7 4,4 9 5 14 7 ENE 1021,7 43 0,0
20.10.2017 10:00:00 0,5 0,4 2 1 5 3 NNE 1021,8 16 0,0
20.10.2017 09:00:00 -0,5 -0,6 0 0 4 2 N 1021,4 21 0,0
20.10.2017 08:00:00 -1,1 -1,2 0 0 4 2 N 1021,1 15 0,0
20.10.2017 07:00:00 -1,4 -1,5 0 0 3 2 N 1021,3 34 0,0
20.10.2017 06:00:00 -1,2 -1,3 0 0 3 2 N 1021,3 0,2 0,0
20.10.2017 05:00:00 -1,3 -1,4 0 0 3 2 N 1021,5 19 0,0
20.10.2017 04:00:00 -1,0 -1,1 0 0 2 1 N 1021,6 13 0,0
20.10.2017 03:00:00 -0,5 -0,6 0 0 2 1 N 1021,8 29 0,0
20.10.2017 02:00:00 -0,3 -0,4 0 0 3 1 N 1021,9 30 0,0
20.10.2017 01:00:00 0,2 0,1 0 0 3 1 N 1022,0 49 0,0
20.10.2017 00:00:00 0,0 -0,1 0 0 2 1 N 1022,2 47 0,0
19.10.2017 23:00:00 0,0 -0,3 0 0 3 1 N 1022,1 19 0,0
19.10.2017 22:00:00 0,2 -0,1 0 0 3 2 N 1022,0 19 0,0
19.10.2017 21:00:00 0,7 0,4 0 0 4 2 N 1021,8 28 0,0
19.10.2017 20:00:00 1,2 0,8 0 0 4 2 N 1021,9 43 0,0
19.10.2017 19:00:00 2,9 2,2 0 0 5 3 N 1021,7 44 0,0
19.10.2017 18:00:00 4,7 3,2 3 1 9 5 ENE 1021,6 50 0,0
19.10.2017 17:00:00 8,0 4,4 4 2 9 5 WNW 1021,4 50 0,0
19.10.2017 16:00:00 10,2 3,2 5 3 9 5 NW 1021,2 36 0,0
19.10.2017 15:00:00 11,1 4,1 4 2 7 4 W 1021,3 40 0,0
19.10.2017 14:00:00 10,7 3,7 3 2 7 4 SSW 1021,3 43 0,0
19.10.2017 13:00:00 10,3 4,0 3 2 7 4 SW 1021,4 19 0,0
19.10.2017 12:00:00 8,5 4,1 4 2 6 3 SSW 1021,5 44 0,0
19.10.2017 11:00:00 5,8 3,6 3 1 - - SSW 1021,4 - -
19.10.2017 10:00:00 2,5 1,6 2 1 7 4 WSW 1021,1 42 0,0
19.10.2017 09:00:00 0,2 0,1 0 0 7 4 N 1020,9 43 0,0
19.10.2017 08:00:00 -1,1 -1,2 0 0 4 2 N 1020,2 24 0,0
19.10.2017 07:00:00 -0,6 -0,7 0 0 5 3 N 1019,7 50 0,0
19.10.2017 06:00:00 -0,4 -0,5 0 0 5 3 N 1019,5 19 0,0
19.10.2017 05:00:00 0,1 -0,2 0 0 12 7 N 1019,3 35 0,0
19.10.2017 04:00:00 0,9 0,8 2 1 12 7 NNW 1019,2 50 0,0
19.10.2017 03:00:00 0,8 0,7 0 0 3 2 N 1018,9 8 0,0
19.10.2017 02:00:00 0,6 0,3 0 0 9 5 N 1018,6 21 0,0
19.10.2017 01:00:00 1,8 1,2 0 0 13 7 N 1018,2 50 0,0
19.10.2017 00:00:00 4,7 2,9 9 5 13 7 NNW 1017,9 50 0,0
18.10.2017 23:00:00 3,3 2,9 3 2 14 8 NNW 1017,7 48 0,0
18.10.2017 22:00:00 3,3 2,6 3 2 14 8 W 1017,4 39 0,0
18.10.2017 21:00:00 3,9 3,3 3 2 8 4 NW 1016,8 50 0,0
18.10.2017 20:00:00 4,4 3,7 4 2 6 3 WNW 1016,3 50 0,0
18.10.2017 19:00:00 5,3 4,0 0 0 13 7 N 1015,9 50 0,0
18.10.2017 18:00:00 6,3 4,1 2 1 19 10 WSW 1015,2 50 0,0
18.10.2017 17:00:00 9,4 4,4 7 4 26 14 W 1014,6 50 0,0
18.10.2017 16:00:00 10,4 4,3 13 7 26 14 WNW 1014,2 49 0,0
18.10.2017 15:00:00 10,6 4,9 14 7 24 13 W 1013,9 49 0,0
18.10.2017 14:00:00 10,6 4,9 13 7 23 12 W 1013,6 41 0,0
18.10.2017 13:00:00 10,0 5,2 13 7 19 11 W 1013,2 44 0,0
18.10.2017 12:00:00 9,1 4,9 13 7 21 11 W 1012,9 40 0,0
18.10.2017 11:00:00 7,4 4,5 11 6 21 11 WNW 1012,4 - 0,0
18.10.2017 10:00:00 6,9 4,6 12 6 29 16 WNW 1011,7 42 0,0
18.10.2017 09:00:00 6,1 3,9 11 6 29 16 NNW 1010,4 50 0,0
18.10.2017 08:00:00 6,6 4,8 10 5 26 14 NNW 1009,3 50 0,0
18.10.2017 07:00:00 7,2 6,0 16 8 30 16 NNW 1008,1 49 0,0
18.10.2017 06:00:00 7,9 6,7 16 9 35 19 NNW 1006,5 19 0,0
18.10.2017 05:00:00 10,3 9,1 15 8 35 19 NNW 1004,7 47 0,3
18.10.2017 04:00:00 11,1 10,2 22 12 38 20 WSW 1003,7 23 0,0
18.10.2017 03:00:00 11,1 10,0 24 13 38 20 WSW 1003,2 21 0,2
18.10.2017 02:00:00 11,0 10,2 17 9 34 19 WSW 1003,2 20 0,8
18.10.2017 01:00:00 11,0 10,2 19 11 33 18 WSW 1003,3 8 0,8
18.10.2017 00:00:00 11,1 10,2 21 11 38 20 WSW 1003,5 8 0,4
17.10.2017 23:00:00 11,4 10,0 24 13 41 22 WSW 1003,7 19 0,0
17.10.2017 22:00:00 11,9 9,5 26 14 42 23 WSW 1004,0 - -
17.10.2017 21:00:00 11,8 9,5 22 12 42 23 SW 1004,1 26 0,0
17.10.2017 20:00:00 11,5 9,6 - - - - - 1004,7 - -
17.10.2017 19:00:00 11,1 9,7 - - - - - - - -
17.10.2017 18:00:00 11,6 10,0 - - - - - - - -
17.10.2017 17:00:00 12,8 9,6 21 11 46 25 WSW 1006,0 30 0,0
17.10.2017 16:00:00 12,5 10,4 22 12 48 26 WSW 1006,5 7 0,0
17.10.2017 15:00:00 14,2 9,4 24 13 48 26 WSW 1006,5 16 0,0
17.10.2017 14:00:00 14,9 9,3 24 13 41 22 W 1006,5 20 0,0
17.10.2017 13:00:00 14,5 - - - - - - - - -
17.10.2017 12:00:00 14,4 12,6 13 7 25 13 SSW 1006,9 8 0,0
17.10.2017 11:00:00 12,2 11,1 15 8 30 16 S 1007,9 - 0,0
17.10.2017 10:00:00 10,9 9,7 13 7 30 16 S 1008,9 - 0,0
17.10.2017 09:00:00 10,3 9,1 13 7 23 12 SSE 1009,9 20 0,0
17.10.2017 08:00:00 10,0 9,2 10 5 17 9 SE 1010,8 25 0,0
17.10.2017 07:00:00 9,7 9,2 8 4 16 8 SE 1011,9 21 0,3
17.10.2017 06:00:00 9,2 8,9 9 5 12 6 ESE 1013,6 13 0,3
17.10.2017 05:00:00 9,4 8,8 2 1 8 4 SE 1015,2 10 0,2
17.10.2017 04:00:00 9,9 9,0 4 2 12 7 SSW 1015,8 30 0,0
17.10.2017 03:00:00 10,2 9,1 7 4 12 7 WSW 1016,2 31 0,0
17.10.2017 02:00:00 9,7 9,1 2 1 10 5 SW 1016,1 20 0,0
17.10.2017 01:00:00 9,6 9,0 2 1 10 5 WSW 1015,5 18 0,0
17.10.2017 00:00:00 9,2 8,6 4 2 6 3 S 1015,5 12 0,0
16.10.2017 23:00:00 9,6 9,0 0 0 7 4 N 1015,9 16 0,0
16.10.2017 22:00:00 8,9 8,4 5 3 8 4 SSW 1015,6 13 0,0
16.10.2017 21:00:00 8,6 8,2 4 2 8 4 SW 1015,7 13 0,0
16.10.2017 20:00:00 9,1 8,5 3 1 5 3 SW 1015,0 12 0,0
16.10.2017 19:00:00 10,6 9,2 0 0 13 7 N 1014,7 16 0,0
16.10.2017 18:00:00 12,2 9,6 3 2 19 11 SSW 1014,1 24 0,0
16.10.2017 17:00:00 14,5 10,1 8 5 36 19 WSW 1013,0 24 0,0
16.10.2017 16:00:00 14,9 9,9 14 8 36 19 W 1012,5 27 0,0
16.10.2017 15:00:00 15,8 10,8 13 7 41 22 W 1011,9 25 0,0
16.10.2017 14:00:00 15,8 10,3 21 12 41 22 W 1011,8 32 0,0
16.10.2017 13:00:00 15,1 10,7 22 12 41 22 W 1011,7 35 0,0
16.10.2017 12:00:00 14,9 10,7 22 12 42 23 W 1010,8 28 0,0
16.10.2017 11:00:00 14,8 11,0 23 13 46 25 W 1010,3 32 0,0
16.10.2017 10:00:00 14,6 10,8 26 14 54 29 W 1009,7 36 0,0
16.10.2017 09:00:00 14,4 11,0 28 15 54 29 W 1009,0 43 0,0
16.10.2017 08:00:00 15,0 11,6 24 13 51 28 W 1008,3 46 0,0
16.10.2017 07:00:00 15,0 11,8 25 13 51 28 WSW 1007,9 32 0,0
16.10.2017 06:00:00 14,9 11,9 21 11 33 18 SW 1007,8 16 0,0

tt = Température de l'air
td = dewpoint
ff = Vitesse du vent
fx = gusts
dd = Direction du vent
ppp = reduced air pressure
vv = visibility
rr = Quantités de précipitations

stations d'obs. à proximité